Terminal Aerodrome Forecast
Issued by NWS

Current Version | Previous Version | Graphics & Text | Print | Product List | Glossary On
Versions: 1 2 3 4 5 6 7 8 9 10 11 12 13 14 15 16 17 18 19 20 21
000
FTUS41 KILN 311300 AAA
TAFLCK
TAF AMD
KLCK 311314Z 3113/0112 19012KT P6SM VCSH SCT025 OVC035
     FM311500 20012KT P6SM VCSH BKN025
     FM312200 32011KT P6SM OVC015
     FM010300 35007KT P6SM OVC007=

USA.gov is the U.S. government's official web portal to all federal, state and local government web resources and services.